Regional Weather Roundup
Issued by NWS Portland, ME

Home | Current Version | Previous Version | Text Only | Print | Product List | Glossary On
Versions: 1 2 3 4 5 6 7 8 9 10 11 12 13 14 15 16 17 18 19 20 21 22 23 24 25 26 27 28 29 30 31 32 33 34 35 36 37 38 39 40 41 42 43 44 45 46 47 48 49 50
000
ASUS41 KGYX 281910
RWRGYX
WEATHER ROUNDUP FOR MAINE AND NEW HAMPSHIRE
NATIONAL WEATHER SERVICE GRAY ME
300 PM EDT THU MAY 28 2015

MEZ002-005-006-010-012-015-018-020-021-024-026-027-029-282000-
MAINE

CITY           SKY/WX    TMP DP  RH WIND       PRES   REMARKS
PORTLAND       MOSUNNY   80  64  58 S14G29    30.01F
SANFORD        MOSUNNY   82  63  51 S9G20     30.02F
BAR HARBOR     SUNNY     64  61  88 S14       30.03S
WISCASSET      MOSUNNY   80  64  58 S9G18     30.03F
ROCKLAND       SUNNY     72  61  68 S8        30.02S
FRYEBURG       MOSUNNY   77  68  73 VRB7      30.01F
LEWISTONAUBURN MOSUNNY   79  64  61 S16G26    30.02R
AUGUSTA        MOSUNNY   80  65  59 S12G22    30.00S
WATERVILLE     PTSUNNY   73  68  83 E3        29.96F
BANGOR         LGT RAIN  74  64  71 S12       30.00R
GREENVILLE       N/A     69  63  81 CALM      30.02S
MILLINOCKET    LGT RAIN  67  65  93 VRB3      30.01S FOG
HOULTON        LGT RAIN  66  64  93 SW5       29.96F
PRESQUE ISLE   CLOUDY    73  61  64 SW8       29.96S
FRENCHVILLE    CLOUDY    66  57  72 N12G24    29.97R
CARIBOU        CLOUDY    75  63  66 SW8       29.94S
$$

NHZ002-005-008-009-011-012-014-282000-
NEW HAMPSHIRE

CITY           SKY/WX    TMP DP  RH WIND       PRES   REMARKS
PORTSMOUTH     PTSUNNY   80  69  67 SE6       30.00F
ROCHESTER      MOSUNNY   87  65  47 S8        30.00F
NASHUA         MOSUNNY   91  63  39 SW8       30.03F HX  92
MANCHESTER     PTSUNNY   88  59  37 SW18G24   29.99F
CONCORD        PTSUNNY   86  61  42 SW15G21   30.01F
LACONIA        CLOUDY    82  63  51 W8        29.98F
PLYMOUTH       FAIR      81  68  65 W10G16    30.02F
BERLIN         LGT RAIN  73  62  68 W8G18     30.04R
WHITEFIELD     CLOUDY    75  60  59 SW8       30.05R
JAFFREY        MOSUNNY   83  62  49 SW14G25   30.06F
KEENE          MOSUNNY   81  64  57 SW10      30.05R THUNDER
LEBANON        CLOUDY    81  59  47 W14G25    30.03F
MT WASHINGTON  SHOWER    50  50 100 W41G54      N/A  VSB 0
$$

VTZ005-007-008-282000-
VERMONT

CITY           SKY/WX    TMP DP  RH WIND       PRES   REMARKS
MONTPELIER     CLOUDY    68  59  73 N13G24    30.12R
BURLINGTON     PTSUNNY   71  55  56 W17G25    30.09R
$$

MAZ007-012-024-CTZ003-RIZ002-NYZ038-NYZ072-282000-
SOUTHERN NEW ENGLAND AND NY

CITY           SKY/WX    TMP DP  RH WIND       PRES   REMARKS
BOSTON         PTSUNNY   86  66  51 S18G26    30.05F
WORCESTER      MOSUNNY   82  63  52 S16G26    30.10F
NANTUCKET      CLOUDY    65  58  78 SW16      30.20S
PROVIDENCE     PTSUNNY   82  66  58 S15G24    30.12F
HARTFORD       PTSUNNY   83  67  58 S14G21    30.08F
ALBANY         PTSUNNY   80  59  48 W18G25    30.11R
NEW YORK CITY  PTSUNNY   82  66  58 S15       30.13F
$$

ANZ081-ANZ082-ANZ150-NHZ014-MEZ023>029-282000-
COASTAL MARINE OBSERVATIONS

STATION/POSITION TIME  TEMP    WIND        PRES    WAVE
                       AIR SEA DIR/SP/G            HT/PER
                 (UTC) (F)     (DEG/KT/KT) (MB)    (FT/S)
MOUNT DESERT ROC 1900   52     190/ 22/ 24   N/A
MATINICUS ROCK   1900   53     210/ 26/ 27   N/A
ISLE OF SHOALS   1900   63     170/ 27/ 29   N/A
JEFFREYS LEDGE   1803      49                N/A     3/ 6
CASHES LEDGE BUO 1850   56 51                N/A     4/ 6
GEORGES BANK BUO 1850   57 52  200/  8/  8   N/A     3/ 6
$$

.............KEY..............
   WCI - WIND CHILL
   TC  - TEMPERATURE IN CELSIUS
   VSB - VISIBILITY IN MILES
   HX  - HEAT INDEX
   FAIR- INDICATES FEW OR NO CLOUDS BELOW 12,000 FT, WITH NO
         SIGNIFICANT WEATHER AND/OR OBSTRUCTIONS TO VISIBILITY.





USA.gov is the U.S. government's official web portal to all federal, state and local government web resources and services.